Year,Month,Day,Hour,Minute,Value (Times are PST for temperature in C)
2017,04,18,00,00,9.20
2017,04,18,00,01,9.20
2017,04,18,00,02,9.20
2017,04,18,00,03,9.20
2017,04,18,00,04,9.20
2017,04,18,00,05,9.20
2017,04,18,00,06,9.20
2017,04,18,00,07,9.20
2017,04,18,00,08,9.20
2017,04,18,00,09,9.20
2017,04,18,00,10,9.20
2017,04,18,00,11,9.20
2017,04,18,00,12,9.20
2017,04,18,00,13,9.20
2017,04,18,00,14,9.10
2017,04,18,00,15,9.10
2017,04,18,00,16,9.10
2017,04,18,00,17,9.10
2017,04,18,00,18,9.10
2017,04,18,00,19,9.10
2017,04,18,00,20,9.10
2017,04,18,00,21,9.10
2017,04,18,00,22,9.10
2017,04,18,00,23,9.10
2017,04,18,00,24,9.10
2017,04,18,00,25,9.10
2017,04,18,00,26,9.10
2017,04,18,00,27,9.10
2017,04,18,00,28,9.10
2017,04,18,00,29,9.10
2017,04,18,00,30,9.10
2017,04,18,00,31,9.10
2017,04,18,00,32,9.00
2017,04,18,00,33,9.00
2017,04,18,00,34,9.00
2017,04,18,00,35,9.00
2017,04,18,00,36,9.00
2017,04,18,00,37,9.00
2017,04,18,00,38,9.00
2017,04,18,00,39,9.00
2017,04,18,00,40,9.00
2017,04,18,00,41,9.00
2017,04,18,00,42,9.00
2017,04,18,00,43,9.00
2017,04,18,00,44,9.00
2017,04,18,00,45,9.00
2017,04,18,00,46,9.00
2017,04,18,00,47,9.00
2017,04,18,00,48,9.00
2017,04,18,00,49,9.00
2017,04,18,00,50,9.00
2017,04,18,00,51,9.00
2017,04,18,00,52,9.00
2017,04,18,00,53,9.00
2017,04,18,00,54,9.00
2017,04,18,00,55,9.00
2017,04,18,00,56,9.00
2017,04,18,00,57,9.00
2017,04,18,00,58,9.00
2017,04,18,00,59,9.00
2017,04,18,01,00,8.90
2017,04,18,01,01,8.90
2017,04,18,01,02,8.90
2017,04,18,01,03,8.90
2017,04,18,01,04,8.90
2017,04,18,01,05,8.90
2017,04,18,01,06,8.90
2017,04,18,01,07,8.90
2017,04,18,01,08,8.90
2017,04,18,01,09,8.90
2017,04,18,01,10,8.90
2017,04,18,01,11,8.90
2017,04,18,01,12,8.90
2017,04,18,01,13,8.90
2017,04,18,01,14,8.90
2017,04,18,01,15,8.90
2017,04,18,01,16,8.90
2017,04,18,01,17,8.90
2017,04,18,01,18,8.90
2017,04,18,01,19,8.90
2017,04,18,01,20,8.90
2017,04,18,01,21,8.90
2017,04,18,01,22,8.90
2017,04,18,01,23,8.90
2017,04,18,01,24,8.90
2017,04,18,01,25,8.90
2017,04,18,01,26,8.90
2017,04,18,01,27,8.90
2017,04,18,01,28,8.90
2017,04,18,01,29,8.90
2017,04,18,01,30,8.90
2017,04,18,01,31,8.90
2017,04,18,01,32,8.90
2017,04,18,01,33,8.90
2017,04,18,01,34,8.90
2017,04,18,01,35,8.90
2017,04,18,01,36,8.90
2017,04,18,01,37,8.90
2017,04,18,01,38,8.90
2017,04,18,01,39,8.90
2017,04,18,01,40,8.90
2017,04,18,01,41,8.90
2017,04,18,01,42,8.90
2017,04,18,01,43,8.90
2017,04,18,01,44,8.90
2017,04,18,01,45,8.90
2017,04,18,01,46,8.90
2017,04,18,01,47,8.90
2017,04,18,01,48,8.90
2017,04,18,01,49,8.90
2017,04,18,01,50,8.90
2017,04,18,01,51,8.90
2017,04,18,01,52,8.90
2017,04,18,01,53,8.90
2017,04,18,01,54,8.90
2017,04,18,01,55,8.90
2017,04,18,01,56,8.90
2017,04,18,01,57,8.90
2017,04,18,01,58,8.80
2017,04,18,01,59,8.80
2017,04,18,02,00,8.80
2017,04,18,02,01,8.90
2017,04,18,02,02,8.90
2017,04,18,02,03,8.90
2017,04,18,02,04,8.90
2017,04,18,02,05,8.90
2017,04,18,02,06,8.90
2017,04,18,02,07,8.90
2017,04,18,02,08,8.90
2017,04,18,02,09,8.90
2017,04,18,02,10,8.90
2017,04,18,02,11,8.90
2017,04,18,02,12,8.90
2017,04,18,02,13,8.90
2017,04,18,02,14,8.90
2017,04,18,02,15,8.90
2017,04,18,02,16,8.90
2017,04,18,02,17,8.90
2017,04,18,02,18,8.90
2017,04,18,02,19,8.90
2017,04,18,02,20,8.90
2017,04,18,02,21,8.90
2017,04,18,02,22,8.90
2017,04,18,02,23,8.90
2017,04,18,02,24,8.90
2017,04,18,02,25,8.90
2017,04,18,02,26,8.90
2017,04,18,02,27,8.90
2017,04,18,02,28,8.90
2017,04,18,02,29,8.90
2017,04,18,02,30,8.90
2017,04,18,02,31,8.90
2017,04,18,02,32,8.90
2017,04,18,02,33,8.90
2017,04,18,02,34,8.90
2017,04,18,02,35,8.90
2017,04,18,02,36,8.90
2017,04,18,02,37,8.90
2017,04,18,02,38,8.90
2017,04,18,02,39,8.90
2017,04,18,02,40,8.90
2017,04,18,02,41,8.90
2017,04,18,02,42,8.90
2017,04,18,02,43,8.90
2017,04,18,02,44,8.90
2017,04,18,02,45,8.90
2017,04,18,02,46,8.90
2017,04,18,02,47,8.90
2017,04,18,02,48,8.90
2017,04,18,02,49,8.90
2017,04,18,02,50,8.90
2017,04,18,02,51,8.90
2017,04,18,02,52,8.90
2017,04,18,02,53,8.80
2017,04,18,02,54,8.80
2017,04,18,02,55,8.90
2017,04,18,02,56,8.80
2017,04,18,02,57,8.80
2017,04,18,02,58,8.80
2017,04,18,02,59,8.80
2017,04,18,03,00,8.80
2017,04,18,03,01,8.80
2017,04,18,03,02,8.80
2017,04,18,03,03,8.80
2017,04,18,03,04,8.80
2017,04,18,03,05,8.80
2017,04,18,03,06,8.80
2017,04,18,03,07,8.80
2017,04,18,03,08,8.80
2017,04,18,03,09,8.80
2017,04,18,03,10,8.80
2017,04,18,03,11,8.80
2017,04,18,03,12,8.80
2017,04,18,03,13,8.80
2017,04,18,03,14,8.80
2017,04,18,03,15,8.80
2017,04,18,03,16,8.80
2017,04,18,03,17,8.80
2017,04,18,03,18,8.80
2017,04,18,03,19,8.80
2017,04,18,03,20,8.80
2017,04,18,03,21,8.80
2017,04,18,03,22,8.80
2017,04,18,03,23,8.80
2017,04,18,03,24,8.90
2017,04,18,03,25,8.90
2017,04,18,03,26,8.90
2017,04,18,03,27,8.90
2017,04,18,03,28,8.90
2017,04,18,03,29,8.90
2017,04,18,03,30,8.90
2017,04,18,03,31,8.90
2017,04,18,03,32,8.90
2017,04,18,03,33,8.90
2017,04,18,03,34,8.90
2017,04,18,03,35,9.00
2017,04,18,03,36,8.90
2017,04,18,03,37,9.00
2017,04,18,03,38,9.00
2017,04,18,03,39,9.00
2017,04,18,03,40,9.00
2017,04,18,03,41,9.00
2017,04,18,03,42,9.00
2017,04,18,03,43,9.00
2017,04,18,03,44,9.00
2017,04,18,03,45,9.00
2017,04,18,03,46,9.00
2017,04,18,03,47,9.00
2017,04,18,03,48,9.00
2017,04,18,03,49,9.00
2017,04,18,03,50,9.00
2017,04,18,03,51,9.00
2017,04,18,03,52,9.00
2017,04,18,03,53,9.00
2017,04,18,03,54,9.00
2017,04,18,03,55,9.00
2017,04,18,03,56,9.00
2017,04,18,03,57,9.00
2017,04,18,03,58,9.00
2017,04,18,03,59,9.00
2017,04,18,04,00,9.00
2017,04,18,04,01,9.00
2017,04,18,04,02,9.00
2017,04,18,04,03,9.00
2017,04,18,04,04,9.00
2017,04,18,04,05,8.90
2017,04,18,04,06,9.00
2017,04,18,04,07,8.90
2017,04,18,04,08,8.90
2017,04,18,04,09,8.90
2017,04,18,04,10,8.90
2017,04,18,04,11,8.90
2017,04,18,04,12,8.90
2017,04,18,04,13,8.90
2017,04,18,04,14,8.90
2017,04,18,04,15,8.90
2017,04,18,04,16,8.90
2017,04,18,04,17,8.90
2017,04,18,04,18,8.90
2017,04,18,04,19,8.90
2017,04,18,04,20,8.90
2017,04,18,04,21,8.90
2017,04,18,04,22,8.90
2017,04,18,04,23,9.00
2017,04,18,04,24,9.00
2017,04,18,04,25,9.00
2017,04,18,04,26,9.00
2017,04,18,04,27,9.00
2017,04,18,04,28,9.00
2017,04,18,04,29,9.10
2017,04,18,04,30,9.10
2017,04,18,04,31,9.10
2017,04,18,04,32,9.10
2017,04,18,04,33,9.10
2017,04,18,04,34,9.10
2017,04,18,04,35,9.10
2017,04,18,04,36,9.10
2017,04,18,04,37,9.10
2017,04,18,04,38,9.10
2017,04,18,04,39,9.10
2017,04,18,04,40,9.10
2017,04,18,04,41,9.10
2017,04,18,04,42,9.10
2017,04,18,04,43,9.10
2017,04,18,04,44,9.10
2017,04,18,04,45,9.10
2017,04,18,04,46,9.10
2017,04,18,04,47,9.10
2017,04,18,04,48,9.10
2017,04,18,04,49,9.10
2017,04,18,04,50,9.10
2017,04,18,04,51,9.10
2017,04,18,04,52,9.10
2017,04,18,04,53,9.10
2017,04,18,04,54,9.10
2017,04,18,04,55,9.10
2017,04,18,04,56,9.10
2017,04,18,04,57,9.10
2017,04,18,04,58,9.10
2017,04,18,04,59,9.10
2017,04,18,05,00,9.10
2017,04,18,05,01,9.10
2017,04,18,05,02,9.10
2017,04,18,05,03,9.10
2017,04,18,05,04,9.10
2017,04,18,05,05,9.10
2017,04,18,05,06,9.10
2017,04,18,05,07,9.10
2017,04,18,05,08,9.10
2017,04,18,05,09,9.10
2017,04,18,05,10,9.10
2017,04,18,05,11,9.10
2017,04,18,05,12,9.10
2017,04,18,05,13,9.10
2017,04,18,05,14,9.10
2017,04,18,05,15,9.10
2017,04,18,05,16,9.10
2017,04,18,05,17,9.10
2017,04,18,05,18,9.10
2017,04,18,05,19,9.10
2017,04,18,05,20,9.10
2017,04,18,05,21,9.10
2017,04,18,05,22,9.10
2017,04,18,05,23,9.20
2017,04,18,05,24,9.20
2017,04,18,05,25,9.20
2017,04,18,05,26,9.20
2017,04,18,05,27,9.20
2017,04,18,05,28,9.20
2017,04,18,05,29,9.20
2017,04,18,05,30,9.20
2017,04,18,05,31,9.20
2017,04,18,05,32,9.20
2017,04,18,05,33,9.20
2017,04,18,05,34,9.20
2017,04,18,05,35,9.30
2017,04,18,05,36,9.30
2017,04,18,05,37,9.30
2017,04,18,05,38,9.30
2017,04,18,05,39,9.30
2017,04,18,05,40,9.30
2017,04,18,05,41,9.30
2017,04,18,05,42,9.30
2017,04,18,05,43,9.30
2017,04,18,05,44,9.30
2017,04,18,05,45,9.30
2017,04,18,05,46,9.20
2017,04,18,05,47,9.20
2017,04,18,05,48,9.30
2017,04,18,05,49,9.30
2017,04,18,05,50,9.30
2017,04,18,05,51,9.30
2017,04,18,05,52,9.30
2017,04,18,05,53,9.30
2017,04,18,05,54,9.30
2017,04,18,05,55,9.30
2017,04,18,05,56,9.30
2017,04,18,05,57,9.30
2017,04,18,05,58,9.30
2017,04,18,05,59,9.40
2017,04,18,06,00,9.40
2017,04,18,06,01,9.40
2017,04,18,06,02,9.40
2017,04,18,06,03,9.40
2017,04,18,06,04,9.40
2017,04,18,06,05,9.40
2017,04,18,06,06,9.40
2017,04,18,06,07,9.40
2017,04,18,06,08,9.40
2017,04,18,06,09,9.40
2017,04,18,06,10,9.40
2017,04,18,06,11,9.40
2017,04,18,06,12,9.40
2017,04,18,06,13,9.40
2017,04,18,06,14,9.40
2017,04,18,06,15,9.40
2017,04,18,06,16,9.40
2017,04,18,06,17,9.40
2017,04,18,06,18,9.30
2017,04,18,06,19,9.40
2017,04,18,06,20,9.40
2017,04,18,06,21,9.40
2017,04,18,06,22,9.40
2017,04,18,06,23,9.40
2017,04,18,06,24,9.30
2017,04,18,06,25,9.40
2017,04,18,06,26,9.30
2017,04,18,06,27,9.30
2017,04,18,06,28,9.30
2017,04,18,06,29,9.30
2017,04,18,06,30,9.30
2017,04,18,06,31,9.30
2017,04,18,06,32,9.30
2017,04,18,06,33,9.40
2017,04,18,06,34,9.40
2017,04,18,06,35,9.40
2017,04,18,06,36,9.30
2017,04,18,06,37,9.30
2017,04,18,06,38,9.30
2017,04,18,06,39,9.30
2017,04,18,06,40,9.30
2017,04,18,06,41,9.30
2017,04,18,06,42,9.30
2017,04,18,06,43,9.30
2017,04,18,06,44,9.30
2017,04,18,06,45,9.30
2017,04,18,06,46,9.30
2017,04,18,06,47,9.30
2017,04,18,06,48,9.30
2017,04,18,06,49,9.30
2017,04,18,06,50,9.30
2017,04,18,06,51,9.30
2017,04,18,06,52,9.30
2017,04,18,06,53,9.30
2017,04,18,06,54,9.30
2017,04,18,06,55,9.30
2017,04,18,06,56,9.30
2017,04,18,06,57,9.30
2017,04,18,06,58,9.30
2017,04,18,06,59,9.30
2017,04,18,07,00,9.30
2017,04,18,07,01,9.30
2017,04,18,07,02,9.30
2017,04,18,07,03,9.30
2017,04,18,07,04,9.30
2017,04,18,07,05,9.30
2017,04,18,07,06,9.30
2017,04,18,07,07,9.30
2017,04,18,07,08,9.30
2017,04,18,07,09,9.30
2017,04,18,07,10,9.30
2017,04,18,07,11,9.30
2017,04,18,07,12,9.30
2017,04,18,07,13,9.20
2017,04,18,07,14,9.20
2017,04,18,07,15,9.20
2017,04,18,07,16,9.20
2017,04,18,07,17,9.20
2017,04,18,07,18,9.20
2017,04,18,07,19,9.20
2017,04,18,07,20,9.20
2017,04,18,07,21,9.20
2017,04,18,07,22,9.10
2017,04,18,07,23,9.10
2017,04,18,07,24,9.10
2017,04,18,07,25,9.10
2017,04,18,07,26,9.10
2017,04,18,07,27,9.10
2017,04,18,07,28,9.10
2017,04,18,07,29,9.10
2017,04,18,07,30,9.10
2017,04,18,07,31,9.10
2017,04,18,07,32,9.10
2017,04,18,07,33,9.10
2017,04,18,07,34,9.10
2017,04,18,07,35,9.10
2017,04,18,07,36,9.10
2017,04,18,07,37,9.10
2017,04,18,07,38,9.10
2017,04,18,07,39,9.10
2017,04,18,07,40,9.10
2017,04,18,07,41,9.10
2017,04,18,07,42,9.10
2017,04,18,07,43,9.10
2017,04,18,07,44,9.00
2017,04,18,07,45,9.00
2017,04,18,07,46,9.00
2017,04,18,07,47,8.90
2017,04,18,07,48,9.00
2017,04,18,07,49,9.00
2017,04,18,07,50,9.00
2017,04,18,07,51,9.00
2017,04,18,07,52,9.00
2017,04,18,07,53,9.00
2017,04,18,07,54,9.00
2017,04,18,07,55,9.10
2017,04,18,07,56,9.00
2017,04,18,07,57,9.00
2017,04,18,07,58,9.00
2017,04,18,07,59,9.10
2017,04,18,08,00,9.10
2017,04,18,08,01,9.10
2017,04,18,08,02,9.10
2017,04,18,08,03,9.10
2017,04,18,08,04,9.10
2017,04,18,08,05,9.20
2017,04,18,08,06,9.20
2017,04,18,08,07,9.20
2017,04,18,08,08,9.20
2017,04,18,08,09,9.20
2017,04,18,08,10,9.20
2017,04,18,08,11,9.20
2017,04,18,08,12,9.20
2017,04,18,08,13,9.20
2017,04,18,08,14,9.20
2017,04,18,08,15,9.20
2017,04,18,08,16,9.20
2017,04,18,08,17,9.20
2017,04,18,08,18,9.20
2017,04,18,08,19,9.20
2017,04,18,08,20,9.20
2017,04,18,08,21,9.20
2017,04,18,08,22,9.20
2017,04,18,08,23,9.20
2017,04,18,08,24,9.20
2017,04,18,08,25,9.20
2017,04,18,08,26,9.20
2017,04,18,08,27,9.20
2017,04,18,08,28,9.20
2017,04,18,08,29,9.20
2017,04,18,08,30,9.20
2017,04,18,08,31,9.20
2017,04,18,08,32,9.20
2017,04,18,08,33,9.30
2017,04,18,08,34,9.30
2017,04,18,08,35,9.30
2017,04,18,08,36,9.40
2017,04,18,08,37,9.40
2017,04,18,08,38,9.40
2017,04,18,08,39,9.50
2017,04,18,08,40,9.50
2017,04,18,08,41,9.50
2017,04,18,08,42,9.40
2017,04,18,08,43,9.40
2017,04,18,08,44,9.40
2017,04,18,08,45,9.40
2017,04,18,08,46,9.40
2017,04,18,08,47,9.40
2017,04,18,08,48,9.50
2017,04,18,08,49,9.50
2017,04,18,08,50,9.50
2017,04,18,08,51,9.50
2017,04,18,08,52,9.50
2017,04,18,08,53,9.50
2017,04,18,08,54,9.50
2017,04,18,08,55,9.50
2017,04,18,08,56,9.50
2017,04,18,08,57,9.50
2017,04,18,08,58,9.50
2017,04,18,08,59,9.50
2017,04,18,09,00,9.50
2017,04,18,09,01,9.60
2017,04,18,09,02,9.60
2017,04,18,09,03,9.60
2017,04,18,09,04,9.60
2017,04,18,09,05,9.60
2017,04,18,09,06,9.60
2017,04,18,09,07,9.60
2017,04,18,09,08,9.60
2017,04,18,09,09,9.70
2017,04,18,09,10,9.70
2017,04,18,09,11,9.70
2017,04,18,09,12,9.60
2017,04,18,09,13,9.60
2017,04,18,09,14,9.70
2017,04,18,09,15,9.70
2017,04,18,09,16,9.70
2017,04,18,09,17,9.80
2017,04,18,09,18,9.80
2017,04,18,09,19,9.80
2017,04,18,09,20,9.80
2017,04,18,09,21,9.80
2017,04,18,09,22,9.80
2017,04,18,09,23,9.90
2017,04,18,09,24,9.90
2017,04,18,09,25,10.00
2017,04,18,09,26,10.10
2017,04,18,09,27,10.10
2017,04,18,09,28,10.10
2017,04,18,09,29,10.10
2017,04,18,09,30,10.20
2017,04,18,09,31,10.20
2017,04,18,09,32,10.20
2017,04,18,09,33,10.20
2017,04,18,09,34,10.10
2017,04,18,09,35,10.00
2017,04,18,09,36,10.00
2017,04,18,09,37,9.90
2017,04,18,09,38,9.90
2017,04,18,09,39,9.90
2017,04,18,09,40,9.90
2017,04,18,09,41,9.90
2017,04,18,09,42,9.90
2017,04,18,09,43,9.90
2017,04,18,09,44,9.90
2017,04,18,09,45,9.90
2017,04,18,09,46,9.90
2017,04,18,09,47,10.00
2017,04,18,09,48,10.00
2017,04,18,09,49,10.00
2017,04,18,09,50,10.10
2017,04,18,09,51,10.10
2017,04,18,09,52,10.10
2017,04,18,09,53,10.10
2017,04,18,09,54,10.10
2017,04,18,09,55,10.10
2017,04,18,09,56,10.10
2017,04,18,09,57,10.20
2017,04,18,09,58,10.10
2017,04,18,09,59,10.10
2017,04,18,10,00,10.10
2017,04,18,10,01,10.10
2017,04,18,10,02,10.20
2017,04,18,10,03,10.20
2017,04,18,10,04,10.20
2017,04,18,10,05,10.20
2017,04,18,10,06,10.20
2017,04,18,10,07,10.30
2017,04,18,10,08,10.30
2017,04,18,10,09,10.30
2017,04,18,10,10,10.30
2017,04,18,10,11,10.30
2017,04,18,10,12,10.30
2017,04,18,10,13,10.30
2017,04,18,10,14,10.30
2017,04,18,10,15,10.30
2017,04,18,10,16,10.40
2017,04,18,10,17,10.40
2017,04,18,10,18,10.40
2017,04,18,10,19,10.50
2017,04,18,10,20,10.50
2017,04,18,10,21,10.50
2017,04,18,10,22,10.50
2017,04,18,10,23,10.40
2017,04,18,10,24,10.40
2017,04,18,10,25,10.40
2017,04,18,10,26,10.40
2017,04,18,10,27,10.40
2017,04,18,10,28,10.40
2017,04,18,10,29,10.40
2017,04,18,10,30,10.40
2017,04,18,10,31,10.40
2017,04,18,10,32,10.40
2017,04,18,10,33,10.40
2017,04,18,10,34,10.50
2017,04,18,10,35,10.60
2017,04,18,10,36,10.70
2017,04,18,10,37,10.80
2017,04,18,10,38,10.90
2017,04,18,10,39,11.00
2017,04,18,10,40,11.10
2017,04,18,10,41,11.20
2017,04,18,10,42,11.30
2017,04,18,10,43,11.30
2017,04,18,10,44,11.40
2017,04,18,10,45,11.40
2017,04,18,10,46,11.40
2017,04,18,10,47,11.40
2017,04,18,10,48,11.40
2017,04,18,10,49,11.40
2017,04,18,10,50,11.40
2017,04,18,10,51,11.40
2017,04,18,10,52,11.30
2017,04,18,10,53,11.20
2017,04,18,10,54,11.10
2017,04,18,10,55,11.10
2017,04,18,10,56,11.00
2017,04,18,10,57,11.00
2017,04,18,10,58,10.90
2017,04,18,10,59,10.90
2017,04,18,11,00,10.90
2017,04,18,11,01,11.00
2017,04,18,11,02,11.00
2017,04,18,11,03,11.00
2017,04,18,11,04,11.10
2017,04,18,11,05,11.10
2017,04,18,11,06,11.10
2017,04,18,11,07,11.10
2017,04,18,11,08,11.20
2017,04,18,11,09,11.20
2017,04,18,11,10,11.30
2017,04,18,11,11,11.30
2017,04,18,11,12,11.40
2017,04,18,11,13,11.50
2017,04,18,11,14,11.60
2017,04,18,11,15,11.60
2017,04,18,11,16,11.60
2017,04,18,11,17,11.50
2017,04,18,11,18,11.50
2017,04,18,11,19,11.40
2017,04,18,11,20,11.40
2017,04,18,11,21,11.40
2017,04,18,11,22,11.30
2017,04,18,11,23,11.30
2017,04,18,11,24,11.20
2017,04,18,11,25,11.20
2017,04,18,11,26,11.20
2017,04,18,11,27,11.20
2017,04,18,11,28,11.20
2017,04,18,11,29,11.20
2017,04,18,11,30,11.20
2017,04,18,11,31,11.20
2017,04,18,11,32,11.20
2017,04,18,11,33,11.20
2017,04,18,11,34,11.20
2017,04,18,11,35,11.20
2017,04,18,11,36,11.20
2017,04,18,11,37,11.20
2017,04,18,11,38,11.20
2017,04,18,11,39,11.20
2017,04,18,11,40,11.30
2017,04,18,11,41,11.30
2017,04,18,11,42,11.30
2017,04,18,11,43,11.30
2017,04,18,11,44,11.40
2017,04,18,11,45,11.40
2017,04,18,11,46,11.40
2017,04,18,11,47,11.40
2017,04,18,11,48,11.40
2017,04,18,11,49,11.40
2017,04,18,11,50,11.40
2017,04,18,11,51,11.40
2017,04,18,11,52,11.40
2017,04,18,11,53,11.40
2017,04,18,11,54,11.40
2017,04,18,11,55,11.40
2017,04,18,11,56,11.30
2017,04,18,11,57,11.30
2017,04,18,11,58,11.30
2017,04,18,11,59,11.40
2017,04,18,12,00,11.40
2017,04,18,12,01,11.40
2017,04,18,12,02,11.50
2017,04,18,12,03,11.50
2017,04,18,12,04,11.50
2017,04,18,12,05,11.40
2017,04,18,12,06,11.40
2017,04,18,12,07,11.40
2017,04,18,12,08,11.40
2017,04,18,12,09,11.40
2017,04,18,12,10,11.40
2017,04,18,12,11,11.40
2017,04,18,12,12,11.40
2017,04,18,12,13,11.40
2017,04,18,12,14,11.40
2017,04,18,12,15,11.40
2017,04,18,12,16,11.50
2017,04,18,12,17,11.60
2017,04,18,12,18,11.60
2017,04,18,12,19,11.70
2017,04,18,12,20,11.80
2017,04,18,12,21,11.80
2017,04,18,12,22,11.80
2017,04,18,12,23,11.80
2017,04,18,12,24,11.80
2017,04,18,12,25,11.80
2017,04,18,12,26,11.80
2017,04,18,12,27,11.80
2017,04,18,12,28,11.70
2017,04,18,12,29,11.70
2017,04,18,12,30,11.70
2017,04,18,12,31,11.60
2017,04,18,12,32,11.70
2017,04,18,12,33,11.70
2017,04,18,12,34,11.70
2017,04,18,12,35,11.80
2017,04,18,12,36,11.90
2017,04,18,12,37,11.90
2017,04,18,12,38,11.90
2017,04,18,12,39,11.90
2017,04,18,12,40,11.90
2017,04,18,12,41,11.80
2017,04,18,12,42,11.80
2017,04,18,12,43,11.70
2017,04,18,12,44,11.70
2017,04,18,12,45,11.70
2017,04,18,12,46,11.70
2017,04,18,12,47,11.70
2017,04,18,12,48,11.70
2017,04,18,12,49,11.70
2017,04,18,12,50,11.70
2017,04,18,12,51,11.70
2017,04,18,12,52,11.80
2017,04,18,12,53,11.80
2017,04,18,12,54,11.80
2017,04,18,12,55,11.80
2017,04,18,12,56,11.80
2017,04,18,12,57,11.80
2017,04,18,12,58,11.80
2017,04,18,12,59,11.70
2017,04,18,13,00,11.70
2017,04,18,13,01,11.70
2017,04,18,13,02,11.70
2017,04,18,13,03,11.70
2017,04,18,13,04,11.60
2017,04,18,13,05,11.60
2017,04,18,13,06,11.60
2017,04,18,13,07,11.50
2017,04,18,13,08,11.50
2017,04,18,13,09,11.50
2017,04,18,13,10,11.50
2017,04,18,13,11,11.50
2017,04,18,13,12,11.40
2017,04,18,13,13,11.40
2017,04,18,13,14,11.50
2017,04,18,13,15,11.50
2017,04,18,13,16,11.50
2017,04,18,13,17,11.50
2017,04,18,13,18,11.60
2017,04,18,13,19,11.60
2017,04,18,13,20,11.60
2017,04,18,13,21,11.60
2017,04,18,13,22,11.60
2017,04,18,13,23,11.50
2017,04,18,13,24,11.50
2017,04,18,13,25,11.50
2017,04,18,13,26,11.60
2017,04,18,13,27,11.50
2017,04,18,13,28,11.50
2017,04,18,13,29,11.50
2017,04,18,13,30,11.50
2017,04,18,13,31,11.40
2017,04,18,13,32,11.40
2017,04,18,13,33,11.40
2017,04,18,13,34,11.50
2017,04,18,13,35,11.50
2017,04,18,13,36,11.60
2017,04,18,13,37,11.60
2017,04,18,13,38,11.60
2017,04,18,13,39,11.60
2017,04,18,13,40,11.60
2017,04,18,13,41,11.70
2017,04,18,13,42,11.70
2017,04,18,13,43,11.70
2017,04,18,13,44,11.70
2017,04,18,13,45,11.70
2017,04,18,13,46,11.70
2017,04,18,13,47,11.70
2017,04,18,13,48,11.70
2017,04,18,13,49,11.60
2017,04,18,13,50,11.60
2017,04,18,13,51,11.60
2017,04,18,13,52,11.70
2017,04,18,13,53,11.70
2017,04,18,13,54,11.70
2017,04,18,13,55,11.70
2017,04,18,13,56,11.70
2017,04,18,13,57,11.80
2017,04,18,13,58,11.80
2017,04,18,13,59,11.80
2017,04,18,14,00,11.90
2017,04,18,14,01,11.90
2017,04,18,14,02,11.90
2017,04,18,14,03,11.90
2017,04,18,14,04,11.90
2017,04,18,14,05,11.90
2017,04,18,14,06,11.90
2017,04,18,14,07,11.90
2017,04,18,14,08,11.90
2017,04,18,14,09,11.80
2017,04,18,14,10,11.80
2017,04,18,14,11,11.80
2017,04,18,14,12,11.80
2017,04,18,14,13,11.70
2017,04,18,14,14,11.70
2017,04,18,14,15,11.70
2017,04,18,14,16,11.60
2017,04,18,14,17,11.60
2017,04,18,14,18,11.60
2017,04,18,14,19,11.60
2017,04,18,14,20,11.60
2017,04,18,14,21,11.70
2017,04,18,14,22,11.70
2017,04,18,14,23,11.80
2017,04,18,14,24,11.80
2017,04,18,14,25,11.90
2017,04,18,14,26,11.90
2017,04,18,14,27,12.00
2017,04,18,14,28,12.00
2017,04,18,14,29,12.10
2017,04,18,14,30,12.10
2017,04,18,14,31,12.20
2017,04,18,14,32,12.20
2017,04,18,14,33,12.20
2017,04,18,14,34,12.30
2017,04,18,14,35,12.30
2017,04,18,14,36,12.30
2017,04,18,14,37,12.30
2017,04,18,14,38,12.30
2017,04,18,14,39,12.30
2017,04,18,14,40,12.30
2017,04,18,14,41,12.20
2017,04,18,14,42,12.20
2017,04,18,14,43,12.20
2017,04,18,14,44,12.20
2017,04,18,14,45,12.20
2017,04,18,14,46,12.20
2017,04,18,14,47,12.20
2017,04,18,14,48,12.20
2017,04,18,14,49,12.20
2017,04,18,14,50,12.20
2017,04,18,14,51,12.30
2017,04,18,14,52,12.30
2017,04,18,14,53,12.40
2017,04,18,14,54,12.40
2017,04,18,14,55,12.40
2017,04,18,14,56,12.40
2017,04,18,14,57,12.50
2017,04,18,14,58,12.50
2017,04,18,14,59,12.60
2017,04,18,15,00,12.60
2017,04,18,15,01,12.60
2017,04,18,15,02,12.70
2017,04,18,15,03,12.70
2017,04,18,15,04,12.80
2017,04,18,15,05,12.80
2017,04,18,15,06,12.90
2017,04,18,15,07,12.90
2017,04,18,15,08,12.90
2017,04,18,15,09,12.90
2017,04,18,15,10,12.90
2017,04,18,15,11,12.90
2017,04,18,15,12,12.90
2017,04,18,15,13,12.90
2017,04,18,15,14,12.90
2017,04,18,15,15,13.00
2017,04,18,15,16,12.90
2017,04,18,15,17,13.00
2017,04,18,15,18,13.00
2017,04,18,15,19,13.10
2017,04,18,15,20,13.10
2017,04,18,15,21,13.10
2017,04,18,15,22,13.10
2017,04,18,15,23,13.10
2017,04,18,15,24,13.10
2017,04,18,15,25,13.10
2017,04,18,15,26,13.20
2017,04,18,15,27,13.20
2017,04,18,15,28,13.20
2017,04,18,15,29,13.10
2017,04,18,15,30,13.10
2017,04,18,15,31,13.20
2017,04,18,15,32,13.10
2017,04,18,15,33,13.10
2017,04,18,15,34,13.10
2017,04,18,15,35,13.00
2017,04,18,15,36,13.00
2017,04,18,15,37,13.00
2017,04,18,15,38,13.00
2017,04,18,15,39,12.90
2017,04,18,15,40,12.90
2017,04,18,15,41,12.90
2017,04,18,15,42,12.90
2017,04,18,15,43,12.90
2017,04,18,15,44,12.80
2017,04,18,15,45,12.80
2017,04,18,15,46,12.80
2017,04,18,15,47,12.80
2017,04,18,15,48,12.80
2017,04,18,15,49,12.90
2017,04,18,15,50,12.90
2017,04,18,15,51,12.90
2017,04,18,15,52,12.90
2017,04,18,15,53,12.80
2017,04,18,15,54,12.80
2017,04,18,15,55,12.90
2017,04,18,15,56,12.90
2017,04,18,15,57,13.00
2017,04,18,15,58,13.10
2017,04,18,15,59,13.10
2017,04,18,16,00,13.10
2017,04,18,16,01,13.10
2017,04,18,16,02,13.20
2017,04,18,16,03,13.20
2017,04,18,16,04,13.20
2017,04,18,16,05,13.20
2017,04,18,16,06,13.20
2017,04,18,16,07,13.20
2017,04,18,16,08,13.20
2017,04,18,16,09,13.20
2017,04,18,16,10,13.10
2017,04,18,16,11,13.20
2017,04,18,16,12,13.20
2017,04,18,16,13,13.30
2017,04,18,16,14,13.40
2017,04,18,16,15,13.40
2017,04,18,16,16,13.40
2017,04,18,16,17,13.30
2017,04,18,16,18,13.30
2017,04,18,16,19,13.20
2017,04,18,16,20,13.20
2017,04,18,16,21,13.10
2017,04,18,16,22,13.10
2017,04,18,16,23,13.10
2017,04,18,16,24,13.00
2017,04,18,16,25,13.00
2017,04,18,16,26,13.00
2017,04,18,16,27,12.90
2017,04,18,16,28,12.90
2017,04,18,16,29,12.90
2017,04,18,16,30,12.90
2017,04,18,16,31,12.80
2017,04,18,16,32,12.80
2017,04,18,16,33,12.80
2017,04,18,16,34,12.90
2017,04,18,16,35,12.90
2017,04,18,16,36,12.90
2017,04,18,16,37,12.90
2017,04,18,16,38,12.90
2017,04,18,16,39,12.90
2017,04,18,16,40,12.90
2017,04,18,16,41,12.90
2017,04,18,16,42,12.90
2017,04,18,16,43,12.90
2017,04,18,16,44,13.00
2017,04,18,16,45,13.00
2017,04,18,16,46,13.00
2017,04,18,16,47,13.00
2017,04,18,16,48,13.10
2017,04,18,16,49,13.10
2017,04,18,16,50,13.10
2017,04,18,16,51,13.20
2017,04,18,16,52,13.20
2017,04,18,16,53,13.20
2017,04,18,16,54,13.30
2017,04,18,16,55,13.30
2017,04,18,16,56,13.30
2017,04,18,16,57,13.40
2017,04,18,16,58,13.40
2017,04,18,16,59,13.40
2017,04,18,17,00,13.40
2017,04,18,17,01,13.40
2017,04,18,17,02,13.40
2017,04,18,17,03,13.30
2017,04,18,17,04,13.30
2017,04,18,17,05,13.30
2017,04,18,17,06,13.30
2017,04,18,17,07,13.20
2017,04,18,17,08,13.20
2017,04,18,17,09,13.10
2017,04,18,17,10,13.10
2017,04,18,17,11,13.10
2017,04,18,17,12,13.10
2017,04,18,17,13,13.00
2017,04,18,17,14,13.00
2017,04,18,17,15,13.00
2017,04,18,17,16,13.00
2017,04,18,17,17,12.90
2017,04,18,17,18,12.90
2017,04,18,17,19,12.90
2017,04,18,17,20,12.90
2017,04,18,17,21,12.90
2017,04,18,17,22,12.90
2017,04,18,17,23,12.90
2017,04,18,17,24,12.90
2017,04,18,17,25,12.90
2017,04,18,17,26,12.90
2017,04,18,17,27,12.80
2017,04,18,17,28,12.80
2017,04,18,17,29,12.80
2017,04,18,17,30,12.80
2017,04,18,17,31,12.80
2017,04,18,17,32,12.70
2017,04,18,17,33,12.70
2017,04,18,17,34,12.70
2017,04,18,17,35,12.70
2017,04,18,17,36,12.70
2017,04,18,17,37,12.70
2017,04,18,17,38,12.70
2017,04,18,17,39,12.80
2017,04,18,17,40,12.80
2017,04,18,17,41,12.80
2017,04,18,17,42,12.90
2017,04,18,17,43,12.90
2017,04,18,17,44,12.90